Zurück zum Katalog

DELTA 1 DEB

AktivSSO
NORAD 7019·DEBRIS·🇺🇸 United States

Gestartet Nov 6, 1973 von Vandenberg Space Force Base

Loading…

Nächste Überflüge (nächste 24 Stunden)

TLE

AktuellSource: Space-Track

Epoche: Sep 13, 2026, 21:16 UTC

1 07019U 73086K   26256.88647775 -.00000018  00000-0  19861-3 0  9992
2 07019 102.2126 272.1345 0066336  39.5733  29.6224 12.42818626395878

Verfolge DELTA 1 DEB in Echtzeit mit AllMySat

Download on the App Store